This demonstration page uses our WeatherBlox Daily Observations layout. Learn more.

Left ArrowRight Arrow

Hourly Observations for April 29, 2022

Temp ( °F °C ) Dew Point ( °F °C ) Humidity (%) Winds ( mph kmh ) Pressure ( in mb ) Visibility ( mi km ) Precip ( " mm )
12:55 am 00:55 Mostly Clear with Light Rain 65 18.1 60 15.7 86 86 SSE 30 48 29.60 1002 10 16 0.00 0.00
1:15 am 01:15 Cloudy 64 18 61 16 88 88 SSE 20 31 29.61 1003 10 16 0.00 0.00
1:35 am 01:35 Partly Cloudy 64 17.8 61 16 89 89 SSE 20 31 29.62 1003 10 16 0.00 0.00
1:55 am 01:55 Clear 64 17.5 60 15.8 90 90 SSE 18 30 29.61 1003 10 16 0.00 0.00
2:15 am 02:15 Clear 63 17 60 15.6 92 92 SSE 16 26 29.61 1003 10 16 0.00 0.00
2:35 am 02:35 Clear 63 17 60 15.5 91 91 SSE 16 26 29.60 1002 10 16 0.00 0.00
2:55 am 02:55 Clear 62 16.5 59 15.2 92 92 SE 14 22 29.58 1002 10 16 0.00 0.00
3:15 am 03:15 Clear 61 16.2 59 15.1 93 93 SSE 20 31 29.57 1001 10 16 0.00 0.00
3:35 am 03:35 Clear 61 16.1 59 15 93 93 SSE 14 22 29.55 1001 10 16 0.00 0.00
3:55 am 03:55 Clear 61 16 59 15 94 94 SSE 17 28 29.54 1000 10 16 0.00 0.00
4:15 am 04:15 Clear 60 15.8 59 15 95 95 SSE 15 24 29.53 1000 10 16 0.00 0.00
4:35 am 04:35 Partly Cloudy with Light Rain 60 15.6 59 14.9 96 96 SE 17 28 29.54 1000 7 11 0.01 0.25
4:55 am 04:55 Cloudy 61 15.9 59 15 94 94 SSE 22 35 29.53 1000 10 16 0.01 0.25
5:15 am 05:15 Mostly Cloudy with Nearby Thunderstorms 61 16 59 15 94 94 SSE 17 28 29.52 1000 10 16 0.00 0.00
5:35 am 05:35 Mostly Cloudy 61 16.3 59 15 92 92 SSE 18 30 29.50 999 10 16 0.00 0.00
5:55 am 05:55 Cloudy 62 16.5 59 15 91 91 SSE 22 35 29.50 999 10 16 0.00 0.00
6:15 am 06:15 Cloudy 61 16 59 15 94 94 SSE 21 33 29.50 999 10 16 0.00 0.00
6:35 am 06:35 Cloudy 60 15.8 59 15 95 95 SE 17 28 29.50 999 10 16 0.00 0.00
6:55 am 06:55 Cloudy 61 16 59 15 94 94 SE 20 31 29.49 999 10 16 0.00 0.00
7:15 am 07:15 Cloudy 61 16 59 15 94 94 SE 18 30 29.49 999 10 16 0.00 0.00
7:35 am 07:35 Cloudy 61 16.1 59 15.1 94 94 SE 20 31 29.49 999 10 16 0.00 0.00
7:55 am 07:55 Cloudy 62 16.5 59 15.2 92 92 SE 22 35 29.48 998 10 16 0.00 0.00
8:15 am 08:15 Cloudy 62 16.5 58 14.7 89 89 SE 23 37 29.48 998 10 16 0.00 0.00
8:35 am 08:35 Cloudy 62 16.5 58 14.5 88 88 SE 22 35 29.48 998 10 16 0.00 0.00
8:55 am 08:55 Cloudy 62 16.6 58 14.2 86 86 SE 18 30 29.50 999 10 16 0.00 0.00
9:15 am 09:15 Cloudy 62 16.5 57 13.9 85 85 SE 14 22 29.51 999 10 16 0.00 0.00
9:35 am 09:35 Cloudy 62 16.6 57 13.7 83 83 SE 12 19 29.51 999 10 16 0.00 0.00
9:55 am 09:55 Cloudy 62 16.4 57 14 86 86 SE 16 26 29.50 999 10 16 0.00 0.00
10:15 am 10:15 Cloudy 61 16.3 58 14.3 88 88 SE 12 19 29.49 999 10 16 0.00 0.00
10:35 am 10:35 Cloudy 62 16.6 58 14.2 86 86 SE 17 28 29.48 998 10 16 0.00 0.00
10:55 am 10:55 Cloudy 63 17.3 58 14.7 85 85 SE 17 28 29.45 997 10 16 0.00 0.00
11:15 am 11:15 Cloudy 63 17.4 58 14.5 83 83 SE 17 28 29.45 997 10 16 0.00 0.00
11:35 am 11:35 Cloudy 64 18 59 14.9 82 82 SE 17 28 29.45 997 10 16 0.00 0.00
11:55 am 11:55 Cloudy 65 18.1 59 14.8 81 81 SE 14 22 29.44 997 10 16 0.00 0.00
12:15 pm 12:15 Cloudy 65 18.1 59 15.2 83 83 ESE 12 19 29.43 997 10 16 0.00 0.00
12:35 pm 12:35 Cloudy 66 18.9 60 15.4 80 80 SE 16 26 29.42 996 10 16 0.00 0.00
12:55 pm 12:55 Cloudy 67 19.5 60 15.6 78 78 SE 13 20 29.40 996 10 16 0.00 0.00
1:15 pm 13:15 Cloudy with Nearby Thunderstorms 67 19.6 60 15.5 77 77 SE 14 22 29.40 996 10 16 0.00 0.00
1:35 pm 13:35 Cloudy 69 20.5 60 15.3 72 72 SE 12 19 29.39 995 10 16 0.00 0.00
1:55 pm 13:55 Mostly Cloudy 70 21.1 59 15 68 68 SE 13 20 29.37 995 10 16 0.00 0.00
2:15 pm 14:15 Mostly Cloudy 71 21.5 57 14 62 62 SE 10 17 29.37 994 10 16 0.00 0.00
2:35 pm 14:35 Cloudy 71 21.9 57 13.8 60 60 SE 10 17 29.35 994 10 16 0.00 0.00
2:55 pm 14:55 Cloudy 73 22.6 57 14 58 58 ESE 8 13 29.34 993 10 16 0.00 0.00
3:15 pm 15:15 Cloudy 73 22.9 58 14.5 59 59 ESE 7 11 29.33 993 10 16 0.00 0.00
3:35 pm 15:35 Cloudy 73 22.9 57 14 57 57 SE 5 7 29.33 993 10 16 0.00 0.00
3:55 pm 15:55 Cloudy 74 23.1 57 14 57 57 Calm 29.30 992 10 16 0.00 0.00
4:15 pm 16:15 Cloudy 72 22.3 58 14.3 61 61 ENE 5 7 29.31 993 10 16 0.00 0.00
4:35 pm 16:35 Mostly Cloudy 72 22 58 14.4 62 62 NNE 3 6 29.29 992 10 16 0.00 0.00
4:55 pm 16:55 Mostly Cloudy with Thunderstorms 71 21.4 59 14.8 66 66 NNW 8 13 29.30 992 10 16 0.00 0.00
5:15 pm 17:15 Mostly Cloudy 69 20.5 59 14.8 70 70 WNW 8 13 29.29 992 10 16 0.00 0.00
5:35 pm 17:35 Cloudy with Strong Thunderstorms 54 12.3 49 9.5 83 83 N 36 57 29.36 994 3 5 0.04 1.02
5:55 pm 17:55 Cloudy with Thunderstorms 53 11.9 48 9.1 83 83 NNW 32 52 29.43 996 7 11 0.12 3.05
6:15 pm 18:15 Cloudy with Thunderstorms 54 12.2 48 9.1 82 82 N 31 50 29.41 996 7 11 0.05 1.27
6:35 pm 18:35 Windy with Storms Likely 53 11.9 49 9.5 85 85 WNW 23 37 29.47 998 10 16 0.05 1.27
6:55 pm 18:55 Cloudy 55 12.7 49 9.2 79 79 NW 14 22 29.44 997 10 16 0.05 1.27
7:15 pm 19:15 Cloudy with Nearby Thunderstorms 55 13 49 9.7 81 81 NW 28 44 29.51 999 10 16 0.00 0.00
7:35 pm 19:35 Cloudy 55 12.6 48 8.8 78 78 NW 26 43 29.52 1000 10 16 0.00 0.00
7:55 pm 19:55 Cloudy 55 12.5 49 9.4 82 82 NNW 22 35 29.54 1000 10 16 0.00 0.00
8:15 pm 20:15 Partly Cloudy 54 12.3 50 9.8 85 85 NNW 10 17 29.55 1001 10 16 0.00 0.00
8:35 pm 20:35 Mostly Cloudy 54 12.3 50 10.1 87 87 Calm 29.58 1002 10 16 0.00 0.00
8:55 pm 20:55 Cloudy 55 12.5 50 9.9 84 84 NW 10 17 29.58 1002 10 16 0.00 0.00
9:15 pm 21:15 Cloudy 54 12 49 9.2 83 83 NNW 16 26 29.54 1000 10 16 0.00 0.00
9:35 pm 21:35 Mostly Cloudy 53 11.7 49 9.4 86 86 N 17 28 29.51 999 10 16 0.00 0.00
9:55 pm 21:55 Partly Cloudy 53 11.5 49 9.2 86 86 NNW 17 28 29.52 1000 10 16 0.00 0.00
10:15 pm 22:15 Clear 52 11.2 48 9 86 86 NNW 18 30 29.52 1000 10 16 0.00 0.00
10:35 pm 22:35 Clear 52 11 48 9 88 88 NNW 13 20 29.52 1000 10 16 0.00 0.00
10:55 pm 22:55 Partly Cloudy 52 11.1 48 8.7 85 85 NW 13 20 29.55 1001 10 16 0.00 0.00
11:15 pm 23:15 Mostly Cloudy 52 11.1 48 8.7 85 85 NNW 15 24 29.55 1001 10 16 0.00 0.00
11:35 pm 23:35 Cloudy 52 11.1 48 8.8 86 86 W 13 20 29.56 1001 10 16 0.00 0.00
11:55 pm 23:55 Cloudy 52 11.1 48 8.8 86 86 W 12 19 29.56 1001 10 16 0.00 0.00

Powered by AerisWeather